BREEZE-M DEB, 34239

Orbit data source: Space-Track

BREEZE-M DEB, 34239 is space debris in LEO originally from a launch on Tue, 28 Feb 2006 UTC launched from the Tyuratam Missile And Space Complex (TTMTR). Debris objects in space refer to the collection of defunct objects orbiting the Earth. Examples of debris include non-operational satellites, rocket bodies, and fragments generated from explosions, collisions, or faulty payload assembly.

Loading next visibility...
Identifier
34239, 2006-006BE
Orbit
LEO
Country
Flag of CISCIS
Related business
Manufacturer
Khrunichev
Mission
Spacecraft
Bus & Motor
Unknown
Mass
Unknown
Launch date (UTC)
2006-02-28 (20 years ago)
Launch vehicle
Unknown
Launch site
Tyuratam Missile And Space Complex (TTMTR)
Object type
Payload
Rocket body
Debris
Shape & HBR
Unknown shape, 0.1 m
Radar Cross Section
Medium (>0.1 m² and <1 m²)

Expand to show TLE details & history
Last TLE update: 2 days ago

TLE from 2 days ago
0 BREEZE-M DEB
1 34239U 06006BE  26160.73543101  .00022654  00000-0  24677-1 0  9998
2 34239  50.3669 344.2846 1511031  44.6180 326.6732 11.52389382 39270
Epoch: 2026-06-09T17:39Z
TLE epoch observation values (Epoch: 2026-06-09T17:39:01.239Z)
Latitude
-0.00005°
Longitude
-178.57427°
Altitude
926.03 km
Speed
7.813 km/s
True Right ascension
22h 57m 08s
True Declination
0° 00' 00"
Sunlit
Object was in daylight at epoch
Visualization orbit readout
Latitude
Unknown
Longitude
Unknown
Altitude
Unknown
Speed
Unknown
Apparent Right ascension
Unknown
Apparent Declination
Unknown
Sunlit
N/A
Visualization observer readout
Local Sidereal Time
15:42:15
Azimuth
Unknown
Elevation
Unknown
Doppler factor
Unknown
Orbital elements
Apogee altitude
3,153.087 km
Perigee altitude
650.796 km
Semi-major axis
8,280.079 km
Eccentricity
0.1511
Inclination
50.3669°
RAAN
344.2846°
Arg. of periapsis
44.618°
True anomaly
315.46669°
Mean anomaly
326.6732°
Eccentric anomaly
321.25479°
Mean motion
2.88066 °/min
Orbital period
124.97 mins
BSTAR
0.024677
Loading maneuver chart data...
Computing Atmospheric mass density...
Loading historical data...
Loading historical data...
Loading historical data...
Loading historical data...
Loading historical data...
Loading historical data...
Loading historical data...

Documentation

Showing up to 5 results
|